TimeCST,TemperatureF,Dew PointF,Humidity,Sea Level PressureIn,VisibilityMPH,Wind Direction,Wind SpeedMPH,Gust SpeedMPH,PrecipitationIn,Events,Conditions,WindDirDegrees,DateUTC
12:25 AM,19.4,15.8,86,30.18,10.0,North,11.5,-,N/A,,Mostly Cloudy,350,2013-02-28 06:25:00
12:53 AM,19.4,15.8,86,30.18,10.0,NNW,11.5,-,N/A,,Overcast,340,2013-02-28 06:53:00
1:53 AM,21.0,17.1,85,30.25,10.0,NNW,11.5,-,N/A,,Overcast,340,2013-02-28 07:53:00
2:53 AM,21.0,17.1,85,30.25,10.0,NNW,15.0,-,N/A,,Overcast,340,2013-02-28 08:53:00
3:53 AM,21.0,17.1,85,30.26,10.0,NNW,12.7,-,N/A,,Overcast,340,2013-02-28 09:53:00
4:53 AM,21.9,17.1,82,30.26,10.0,NNW,11.5,-,N/A,,Overcast,340,2013-02-28 10:53:00
5:53 AM,21.2,17.6,86,30.23,10.0,NNW,10.4,-,N/A,,Overcast,340,2013-02-28 11:53:00
6:53 AM,21.9,17.1,82,30.29,10.0,NNW,12.7,-,N/A,,Overcast,340,2013-02-28 12:53:00
7:53 AM,23.0,17.6,80,30.24,10.0,North,11.5,-,N/A,,Overcast,350,2013-02-28 13:53:00
8:53 AM,23.0,18.0,81,30.30,10.0,North,11.5,-,N/A,,Overcast,350,2013-02-28 14:53:00
9:49 AM,24.8,15.8,69,30.26,10.0,North,12.7,23.0,N/A,,Overcast,10,2013-02-28 15:49:00
9:53 AM,25.0,16.0,69,30.31,10.0,NNE,15.0,-,N/A,,Overcast,20,2013-02-28 15:53:00
10:53 AM,26.1,17.1,69,30.32,10.0,North,12.7,-,N/A,,Overcast,360,2013-02-28 16:53:00
11:53 AM,26.1,18.0,71,30.32,10.0,North,13.8,-,N/A,,Overcast,360,2013-02-28 17:53:00
12:48 PM,26.6,19.4,74,30.26,10.0,North,15.0,-,N/A,,Overcast,10,2013-02-28 18:48:00
12:53 PM,27.0,18.0,69,30.31,10.0,North,13.8,-,N/A,,Overcast,10,2013-02-28 18:53:00
1:04 PM,26.6,19.4,74,30.25,10.0,North,16.1,-,N/A,,Overcast,360,2013-02-28 19:04:00
1:53 PM,27.0,18.0,69,30.30,10.0,North,15.0,-,N/A,,Overcast,360,2013-02-28 19:53:00
2:29 PM,26.6,17.6,69,30.24,10.0,NNE,13.8,-,N/A,,Overcast,20,2013-02-28 20:29:00
2:53 PM,26.1,16.0,66,30.29,10.0,North,13.8,-,N/A,,Overcast,360,2013-02-28 20:53:00
3:03 PM,26.6,15.8,64,30.24,10.0,North,11.5,-,N/A,,Overcast,10,2013-02-28 21:03:00
3:23 PM,24.8,15.8,69,30.24,10.0,NNE,11.5,-,N/A,,Overcast,20,2013-02-28 21:23:00
3:37 PM,24.8,15.8,69,30.25,10.0,NNE,12.7,-,N/A,,Overcast,20,2013-02-28 21:37:00
3:44 PM,24.8,15.8,69,30.25,10.0,NNE,10.4,-,N/A,,Overcast,20,2013-02-28 21:44:00
3:53 PM,25.0,16.0,69,30.30,10.0,NNE,10.4,-,N/A,,Overcast,20,2013-02-28 21:53:00
4:01 PM,24.8,15.8,69,30.25,10.0,North,12.7,-,N/A,,Overcast,10,2013-02-28 22:01:00
4:18 PM,24.8,15.8,69,30.25,10.0,North,10.4,-,N/A,,Overcast,10,2013-02-28 22:18:00
4:53 PM,24.1,15.1,69,30.30,10.0,NNE,11.5,-,N/A,,Overcast,20,2013-02-28 22:53:00
5:53 PM,24.1,16.0,71,30.32,10.0,North,9.2,-,N/A,,Overcast,360,2013-02-28 23:53:00
6:53 PM,21.9,15.1,75,30.34,10.0,NNW,5.8,-,N/A,,Overcast,340,2013-03-01 00:53:00
7:53 PM,21.9,16.0,78,30.34,10.0,North,6.9,-,N/A,,Overcast,350,2013-03-01 01:53:00
8:53 PM,21.0,15.1,78,30.34,10.0,NNW,9.2,-,N/A,,Overcast,340,2013-03-01 02:53:00
9:53 PM,21.0,15.1,78,30.34,10.0,North,8.1,-,N/A,,Overcast,360,2013-03-01 03:53:00
10:53 PM,19.9,14.0,78,30.35,10.0,North,8.1,-,N/A,,Overcast,360,2013-03-01 04:53:00
11:53 PM,18.0,12.9,81,30.35,10.0,North,5.8,-,N/A,,Overcast,360,2013-03-01 05:53:00